This is the latest recevied weather packets stored in our database for station/object N5SNT-2. If no packets are shown the sender has not sent any weather packets the latest 10 day(s).
| Time | Temp. | Humidity | Pressure | Rain* | Wind** | Luminosity | Snow |
|---|---|---|---|---|---|---|---|
| 1777657943 | 15.56° C | 99% | 1015 hPa | 2.29 mm | - | 124 W/m² | - |
| 1777657643 | 15.56° C | 99% | 1015 hPa | 0 mm | - | 29 W/m² | - |
| 1777657344 | 15.56° C | 99% | 1014 hPa | 0.51 mm | - | 34 W/m² | - |
| 1777657046 | 15.56° C | 99% | 1014 hPa | 1.27 mm | - | 108 W/m² | - |
| 1777656744 | 15.56° C | 99% | 1013 hPa | 1.27 mm | - | 73 W/m² | - |
| 1777656444 | 15.56° C | 99% | 1013 hPa | 1.27 mm | - | 85 W/m² | - |
| 1777656143 | 16.11° C | 99% | 1014 hPa | 1.78 mm | - | 69 W/m² | - |
| 1777655844 | 16.11° C | 99% | 1013 hPa | 3.56 mm | - | 49 W/m² | - |
| 1777655544 | 16.11° C | 99% | 1014 hPa | 5.33 mm | - | 32 W/m² | - |
| 1777655243 | 16.11° C | 98% | 1014 hPa | 0 mm | - | 13 W/m² | - |
| 1777654944 | 16.11° C | 99% | 1014 hPa | 0 mm | - | 14 W/m² | - |
| 1777654644 | 16.11° C | 99% | 1013 hPa | 0 mm | - | 17 W/m² | - |
| 1777654344 | 16.11° C | 99% | 1013 hPa | 0 mm | - | 30 W/m² | - |
| 1777654044 | 16.67° C | 99% | 1013 hPa | 0 mm | - | 41 W/m² | - |
| 1777653743 | 16.11° C | 99% | 1013 hPa | 0 mm | - | 105 W/m² | - |
| 1777653445 | 16.11° C | 99% | 1013 hPa | 0 mm | - | 211 W/m² | - |
| 1777653144 | 16.67° C | 99% | 1013 hPa | 0 mm | - | 241 W/m² | - |
| 1777652843 | 16.11° C | 99% | 1013 hPa | 0 mm | - | 282 W/m² | - |
| 1777652544 | 16.11° C | 99% | 1013 hPa | 0 mm | - | 319 W/m² | - |
| 1777652244 | 15.56° C | 99% | 1013 hPa | 0 mm | - | 445 W/m² | - |
| 1777651943 | 15.56° C | 99% | 1014 hPa | 0 mm | - | 509 W/m² | - |
| 1777651644 | 15.56° C | 99% | 1013 hPa | 0 mm | - | 356 W/m² | - |
| 1777651344 | 15.56° C | 99% | 1014 hPa | 0 mm | - | 315 W/m² | - |
| 1777651045 | 15.56° C | 99% | 1013 hPa | 0 mm | - | 297 W/m² | - |
| 1777650743 | 16.11° C | 99% | 1014 hPa | 0 mm | - | 294 W/m² | - |
* Rain latest hour (hover to see other rain measurements)
** Current wind speed in m/s (hover to see current wind gust speed)